Simultaneous Nadir Overpasses (SNOs) Predictions

Prediction of SNOs between METOP-B and NOAA-19 Satellite Orbit:

Table of predicted SNOs for the next 14.0 days since TLE Epoch: 9/16/2023
Index Date (METOP-B) Time (METOP-B) Lat,Lon (METOP-B) SZA (METOP-B ) Date (NOAA-19) Time (NOAA-19) Lat,Lon (NOAA-19) SZA (NOAA-19 ) Distance(km) Time Diff (sec)
1 09/24/2023 10:56:01 -80.81,-132.27 97.23 09/24/2023 10:54:52 -80.80,-132.35 97.27 1.57 69
2 09/24/2023 11:46:42 80.80, 34.84 82.76 09/24/2023 11:45:47 80.80, 34.89 82.75 1.09 55
3 09/24/2023 12:37:22 -80.82,-157.44 97.18 09/24/2023 12:36:50 -80.81,-157.55 97.20 1.99 32
4 09/24/2023 13:28:03 80.81, 9.67 82.81 09/24/2023 13:27:45 80.81, 9.70 82.81 0.76 18
5 09/24/2023 14:18:43 -80.83, 177.38 97.13 09/24/2023 14:18:48 -80.82, 177.26 97.14 2.41 5
6 09/24/2023 15:09:24 80.82, -15.51 82.86 09/24/2023 15:09:43 80.82, -15.49 82.87 0.44 19
7 09/24/2023 16:00:04 -80.84, 152.21 97.08 09/24/2023 16:00:46 -80.83, 152.07 97.08 2.83 42



Historial Predications of SNOs between METOP-B and NOAA-19
